Flag for Burkina Faso Weather past 2 weeks in Koudougou, Burkina Faso

Now
100 °F

Duststorm.


Feels Like: 95 °F
Forecast: N/A
Wind: 5 mph from South

Location: Ouagadougou Airport

Current Time: Apr 19, 2015 at 6:08:00 PM

Latest Report: Apr 19, 2015 at 5:00 PM


Visibility: 2 mi

Pressure: 29.80 "Hg

Humidity: 7%

Dew point: 27 °F

Location of KoudougouLocation

Historic Weather in Koudougou — Graph

°F

Koudougou temperature yesterday

Maximum temperature yesterday: 102 °F (at 2:00 PM)
Minimum temperature yesterday: 75 °F (at 5:00 AM)
Average temperature yesterday: 89 °F

Past Weeks' High & Low Weather Summary

 TemperatureHumidityPressure
High108 °F (Apr 9, 1:00 PM)70% (Apr 13, 6:00 AM)30.04 "Hg (Apr 13, 6:00 AM)
Low70 °F (Apr 15, 6:00 AM)5% (Apr 14, 1:00 PM)29.74 "Hg (Apr 4, 5:00 PM)
Average91 °F20%29.88 "Hg
* Reported Apr 4 5:00 PM — Apr 19 5:00 PM, Koudougou, Weather by CustomWeather, © 2015

Note: Actual official high and low records may vary slightly from our data, if they occured in-between our weather recording intervals... More about our weather records

Advertising

Koudougou weather history for previous 24 hours

 ConditionsComfort  
Time TempWeatherWind HumidityBarometerVisibility
5:00 PM
Sun, Apr 19
100 °FDuststorm.5 mph7%29.80 "Hg2 mi
4:00 PM102 °FDuststorm.7 mph7%29.80 "Hg2 mi
3:00 PM104 °FDuststorm.10 mph7%29.80 "Hg2 mi
2:00 PM104 °FDuststorm.7 mph6%29.83 "Hg2 mi
1:00 PM104 °FDuststorm.6 mph6%29.83 "Hg1 mi
12:00 PM102 °FDuststorm.7 mph7%29.89 "Hg1 mi
11:00 AM100 °FDuststorm.12 mph7%29.92 "Hg1 mi
10:00 AM97 °FDuststorm.13 mph8%29.92 "Hg1 mi
9:00 AM91 °FDuststorm.13 mph9%29.95 "Hg1 mi
8:00 AM88 °FDuststorm.2 mph12%29.95 "Hg1 mi
7:00 AM82 °FDuststorm.No wind19%29.92 "Hg1 mi
6:00 AM79 °FDuststorm.No wind23%29.89 "Hg2 mi
5:00 AM79 °FDuststorm.No wind26%29.89 "Hg2 mi
4:00 AM81 °FDuststorm.No wind23%29.89 "Hg2 mi
3:00 AM81 °FDuststorm.No wind26%29.89 "Hg2 mi
2:00 AM81 °FDuststorm.No wind26%29.89 "Hg1 mi
1:00 AM82 °FDuststorm.No wind25%29.89 "Hg2 mi
12:00 AM84 °FDuststorm.No wind16%29.92 "Hg2 mi
11:00 PM
Sat, Apr 18
84 °FDuststorm.3 mph19%29.92 "Hg2 mi
10:00 PM86 °FDuststorm.3 mph18%29.92 "Hg3 mi
9:00 PM88 °FDuststorm.2 mph18%29.92 "Hg2 mi
8:00 PM88 °FDuststorm.1 mph17%29.89 "Hg2 mi
7:00 PM95 °FDuststorm.2 mph9%29.86 "Hg1 mi
6:00 PM97 °FDuststorm.5 mph8%29.86 "Hg1 mi
Weather by CustomWeather, © 2015

See weather overviewHow to use our weather pages